Location: Seven Kings
(51.5667°N, 0.1000°E)
Time: 03:11:27
(UTC+00:00)

Cosmos 1844 Rocket - Pass Details

Date: 29 October 2020
Orbit: 823 x 846 km, 71.0° (Epoch: 27 November)

Event Time Altitude Azimuth Distance (km) Brightness Sun altitude
Rises 18:23:46 0° 328° (NNW) 3,411 6.3 -17.0°
Reaches altitude 10° 18:27:04 10° 348° (NNW) 2,476 5.3 -17.5°
Maximum altitude 18:30:53 18° 30° (NNE) 1,972 4.3 -18.1°
Enters shadow 18:31:47 17° 42° (NE) 2,004 4.3 -18.3°
